When you browse on this site, cookies collect data to enhance your experience and personalize the content and advertising you see.
Visit our Privacy Policy to learn more. By continuing to use the site, you agree to this use of cookies and data.
  • In United Kingdom
  • List of Countries
  • For 7 days
  • Water Temperature
  • Weather Map
  • Weather Widgets
  • user-avatar
    Login

    Hourly Weather Kiel

    Today, 24 August, Saturday

    Time Temperature Precipitation Wind Pressure Humidity
    00:00 +18°C° 0 mm 1 mps 768 mmHg 93%
    01:00 +18°C° 0 mm 1 mps 768 mmHg 93%
    02:00 +18°C° 0 mm 1 mps 767 mmHg 92%
    03:00 +17°C° 0 mm 2 mps 767 mmHg 92%
    04:00 +16°C° 0 mm 2 mps 767 mmHg 91%
    05:00 +17°C° 0 mm 2 mps 767 mmHg 88%
    06:00 +18°C° 0 mm 2 mps 767 mmHg 85%
    07:00 +18°C° 0 mm 3 mps 767 mmHg 82%
    08:00 +20°C° 0 mm 3 mps 767 mmHg 75%
    09:00 +22°C° 0 mm 3 mps 767 mmHg 69%
    10:00 +23°C° 0 mm 4 mps 768 mmHg 63%
    11:00 +25°C° 0 mm 4 mps 767 mmHg 60%
    12:00 +26°C° 0 mm 4 mps 767 mmHg 57%
    13:00 +27°C° 0 mm 4 mps 767 mmHg 55%
    14:00 +26°C° 0 mm 4 mps 767 mmHg 55%
    15:00 +26°C° 0 mm 4 mps 766 mmHg 55%
    16:00 +26°C° 0 mm 4 mps 766 mmHg 56%
    17:00 +25°C° 0 mm 4 mps 766 mmHg 62%
    18:00 +22°C° 0 mm 4 mps 766 mmHg 69%
    19:00 +21°C° 0 mm 4 mps 765 mmHg 75%
    20:00 +20°C° 0 mm 4 mps 765 mmHg 76%
    21:00 +19°C° 0 mm 4 mps 766 mmHg 77%
    22:00 +19°C° 0 mm 4 mps 766 mmHg 78%
    23:00 +18°C° 0 mm 4 mps 766 mmHg 78%

    Tomorrow, 25 August, Sunday

    Time Temperature Precipitation Wind Pressure Humidity
    00:00 +18°C° 0 mm 4 mps 766 mmHg 78%
    01:00 +18°C° 0 mm 4 mps 765 mmHg 77%
    02:00 +17°C° 0 mm 3 mps 765 mmHg 79%
    03:00 +17°C° 0 mm 3 mps 765 mmHg 81%
    04:00 +17°C° 0 mm 3 mps 765 mmHg 82%
    05:00 +18°C° 0 mm 3 mps 765 mmHg 81%
    06:00 +18°C° 0 mm 3 mps 765 mmHg 79%
    07:00 +19°C° 0 mm 3 mps 765 mmHg 77%
    08:00 +21°C° 0 mm 3 mps 765 mmHg 72%
    09:00 +22°C° 0 mm 4 mps 765 mmHg 66%
    10:00 +25°C° 0 mm 4 mps 765 mmHg 61%
    11:00 +26°C° 0 mm 4 mps 765 mmHg 60%
    12:00 +27°C° 0 mm 4 mps 764 mmHg 58%
    13:00 +28°C° 0 mm 4 mps 764 mmHg 57%
    14:00 +28°C° 0 mm 4 mps 764 mmHg 58%
    15:00 +28°C° 0 mm 4 mps 764 mmHg 58%
    16:00 +28°C° 0 mm 5 mps 764 mmHg 59%
    17:00 +26°C° 0 mm 5 mps 764 mmHg 64%
    18:00 +25°C° 0 mm 4 mps 764 mmHg 69%
    19:00 +22°C° 0 mm 4 mps 764 mmHg 74%
    20:00 +22°C° 0 mm 4 mps 764 mmHg 75%
    21:00 +21°C° 0 mm 4 mps 764 mmHg 75%
    22:00 +21°C° 0 mm 4 mps 764 mmHg 76%
    23:00 +20°C° 0 mm 4 mps 764 mmHg 77%

    Day after tomorrow, 26 August, Monday

    Time Temperature Precipitation Wind Pressure Humidity
    00:00 +20°C° 0 mm 3 mps 764 mmHg 77%
    01:00 +19°C° 0 mm 3 mps 764 mmHg 78%
    02:00 +19°C° 0 mm 3 mps 764 mmHg 78%
    03:00 +19°C° 0 mm 3 mps 764 mmHg 78%
    04:00 +19°C° 0 mm 3 mps 764 mmHg 77%
    05:00 +19°C° 0 mm 3 mps 764 mmHg 77%
    06:00 +20°C° 0 mm 3 mps 764 mmHg 76%
    07:00 +20°C° 0 mm 3 mps 764 mmHg 75%
    08:00 +22°C° 0 mm 3 mps 764 mmHg 70%
    09:00 +23°C° 0 mm 4 mps 764 mmHg 66%
    10:00 +26°C° 0 mm 4 mps 764 mmHg 61%
    11:00 +27°C° 0 mm 4 mps 764 mmHg 59%
    12:00 +27°C° 0 mm 4 mps 764 mmHg 57%
    13:00 +28°C° 0 mm 4 mps 764 mmHg 55%
    14:00 +28°C° 0 mm 4 mps 763 mmHg 57%
    15:00 +28°C° 0 mm 4 mps 763 mmHg 58%
    16:00 +28°C° 0 mm 4 mps 763 mmHg 60%
    17:00 +26°C° 0 mm 4 mps 763 mmHg 66%
    18:00 +25°C° 0 mm 4 mps 763 mmHg 72%
    19:00 +22°C° 0 mm 4 mps 762 mmHg 77%
    20:00 +22°C° 0 mm 4 mps 763 mmHg 79%
    21:00 +21°C° 0 mm 4 mps 763 mmHg 81%
    22:00 +21°C° 0 mm 5 mps 763 mmHg 83%
    23:00 +21°C° 0 mm 4 mps 763 mmHg 82%

    27 August, Tuesday

    Time Temperature Precipitation Wind Pressure Humidity
    00:00 +20°C° 0 mm 4 mps 763 mmHg 82%
    01:00 +20°C° 0 mm 4 mps 763 mmHg 81%
    02:00 +20°C° 0 mm 4 mps 762 mmHg 81%
    03:00 +19°C° 0 mm 3 mps 762 mmHg 82%
    04:00 +19°C° 0 mm 3 mps 762 mmHg 82%
    05:00 +20°C° 0 mm 4 mps 762 mmHg 81%
    06:00 +21°C° 0 mm 4 mps 762 mmHg 79%
    07:00 +21°C° 0 mm 4 mps 762 mmHg 78%
    08:00 +23°C° 0 mm 4 mps 762 mmHg 73%
    09:00 +26°C° 0 mm 4 mps 762 mmHg 69%
    10:00 +28°C° 0 mm 4 mps 762 mmHg 64%
    11:00 +28°C° 0 mm 5 mps 762 mmHg 61%
    12:00 +29°C° 0 mm 5 mps 762 mmHg 57%
    13:00 +30°C° 0 mm 6 mps 761 mmHg 54%
    14:00 +30°C° 0 mm 5 mps 761 mmHg 55%
    15:00 +30°C° 0 mm 5 mps 761 mmHg 56%
    16:00 +29°C° 0 mm 5 mps 760 mmHg 57%
    17:00 +27°C° 0.2 mm 5 mps 760 mmHg 64%
    18:00 +26°C° 0.2 mm 5 mps 760 mmHg 71%
    19:00 +23°C° 0.2 mm 5 mps 760 mmHg 79%
    20:00 +22°C° 0.6 mm 5 mps 760 mmHg 82%
    21:00 +22°C° 0.6 mm 5 mps 760 mmHg 85%
    22:00 +21°C° 0.6 mm 5 mps 760 mmHg 88%
    23:00 +21°C° 0.7 mm 4 mps 759 mmHg 89%

    28 August, Wednesday

    Time Temperature Precipitation Wind Pressure Humidity
    00:00 +21°C° 0.7 mm 4 mps 759 mmHg 90%
    01:00 +21°C° 0.7 mm 3 mps 759 mmHg 91%
    02:00 +21°C° 0.1 mm 3 mps 759 mmHg 91%
    03:00 +21°C° 0.1 mm 2 mps 759 mmHg 90%
    04:00 +21°C° 0.1 mm 2 mps 758 mmHg 90%
    05:00 +21°C° 0 mm 2 mps 758 mmHg 88%
    06:00 +23°C° 0 mm 1 mps 758 mmHg 86%
    07:00 +23°C° 0 mm 1 mps 759 mmHg 85%
    08:00 +25°C° 0 mm 1 mps 759 mmHg 80%
    09:00 +26°C° 0 mm 1 mps 759 mmHg 75%
    10:00 +28°C° 0 mm 1 mps 759 mmHg 70%
    11:00 +29°C° 0.1 mm 1 mps 759 mmHg 66%
    12:00 +30°C° 0.1 mm 1 mps 759 mmHg 62%
    13:00 +30°C° 0.1 mm 1 mps 759 mmHg 59%
    14:00 +30°C° 0.1 mm 2 mps 759 mmHg 59%
    15:00 +30°C° 0.1 mm 2 mps 759 mmHg 59%
    16:00 +30°C° 0.1 mm 2 mps 758 mmHg 58%
    17:00 +28°C° 0 mm 2 mps 758 mmHg 65%
    18:00 +27°C° 0 mm 2 mps 759 mmHg 71%
    19:00 +25°C° 0 mm 2 mps 759 mmHg 77%
    20:00 +24°C° 0 mm 1 mps 759 mmHg 77%
    21:00 +23°C° 0 mm 1 mps 759 mmHg 77%
    22:00 +22°C° 0 mm 1 mps 759 mmHg 78%
    23:00 +22°C° 0 mm 1 mps 759 mmHg 78%

    29 August, Thursday

    Time Temperature Precipitation Wind Pressure Humidity
    00:00 +22°C° 0 mm 1 mps 759 mmHg 78%
    01:00 +20°C° 0 mm 0 mps 759 mmHg 78%
    02:00 +22°C° 0 mm 1 mps 759 mmHg 79%
    03:00 +22°C° 0 mm 1 mps 759 mmHg 79%
    04:00 +22°C° 0 mm 1 mps 759 mmHg 80%
    05:00 +22°C° 0 mm 1 mps 759 mmHg 82%
    06:00 +23°C° 0 mm 1 mps 759 mmHg 83%
    07:00 +23°C° 0 mm 1 mps 759 mmHg 84%
    08:00 +25°C° 0 mm 1 mps 759 mmHg 78%
    09:00 +26°C° 0 mm 2 mps 759 mmHg 72%
    10:00 +28°C° 0 mm 2 mps 760 mmHg 66%
    11:00 +28°C° 0.5 mm 2 mps 760 mmHg 64%
    12:00 +29°C° 0.5 mm 2 mps 760 mmHg 61%
    13:00 +30°C° 0.5 mm 2 mps 760 mmHg 59%
    14:00 +29°C° 0.7 mm 2 mps 760 mmHg 60%
    15:00 +29°C° 0.7 mm 2 mps 760 mmHg 62%
    16:00 +28°C° 0.7 mm 2 mps 760 mmHg 63%
    17:00 +27°C° 0.1 mm 2 mps 760 mmHg 69%
    18:00 +25°C° 0.1 mm 2 mps 760 mmHg 75%
    19:00 +22°C° 0.1 mm 3 mps 760 mmHg 82%
    20:00 +21°C° 0 mm 3 mps 760 mmHg 84%
    21:00 +20°C° 0 mm 3 mps 760 mmHg 86%
    22:00 +19°C° 0 mm 3 mps 761 mmHg 87%
    23:00 +19°C° 0.1 mm 3 mps 761 mmHg 87%
    Show more